KA7VEE Weather Reports


Display with metric or nautical units.
time (UTC)temp
F
wind
direction
speed
MPH
gust
MPH
rain 1hr
in
rain 24hr
in
rain mn
in
humidity
%
barometer
mb
20260504231722 0 99 2.0 7.0 0.00 0.00 0.00 1007.4
20260504231219 0 87 3.0 5.0 0.00 0.00 0.00 1007.5
20260504230715 0 3 1.0 5.0 0.00 0.00 0.00 1007.4
20260504230214 0 323 3.0 6.0 0.00 0.00 0.00 1007.6
20260504225712 0 70 2.0 5.0 0.00 0.00 0.00 1007.4
20260504225208 0 41 2.0 3.0 0.00 0.00 0.00 1007.5
20260504224705 0 78 2.0 7.0 0.00 0.00 0.00 1007.6
20260504224203 0 355 1.0 5.0 0.00 0.00 0.00 1007.5
20260504223659 0 79 2.0 3.0 0.00 0.00 0.00 1007.7
20260504223154 0 327 3.0 5.0 0.00 0.00 0.00 1007.8
20260504222652 0 6 3.0 7.0 0.00 0.00 0.00 1007.7
20260504222148 0 260 3.0 5.0 0.00 0.00 0.00 1007.8
20260504221646 0 50 1.0 3.0 0.00 0.00 0.00 1007.6
20260504221143 0 37 4.0 5.0 0.00 0.00 0.00 1007.8
20260504220639 0 347 6.0 7.0 0.00 0.00 0.00 1008.0
20260504220137 0 88 2.0 8.0 0.00 0.00 0.00 1008.0
20260504215633 0 328 5.0 7.0 0.00 0.00 0.00 1008.0
20260504215130 0 325 3.0 7.0 0.00 0.00 0.00 1007.9
20260504214626 0 35 5.0 7.0 0.00 0.00 0.00 1008.0
20260504214123 0 270 5.0 7.0 0.00 0.00 0.00 1008.2
20260504213619 0 334 6.0 10.0 0.00 0.00 0.00 1008.1
20260504213116 0 39 3.0 6.0 0.00 0.00 0.00 1008.2
20260504212612 0 334 7.0 9.0 0.00 0.00 0.00 1008.3
20260504212109 0 12 4.0 7.0 0.00 0.00 0.00 1008.2
20260504211607 0 125 4.0 6.0 0.00 0.00 0.00 1008.2
20260504211103 0 203 5.0 8.0 0.00 0.00 0.00 1008.3
20260504210601 0 254 4.0 6.0 0.00 0.00 0.00 1008.2
20260504210057 0 27 3.0 3.0 0.00 0.00 0.00 1008.1
20260504205555 0 75 1.0 6.0 0.00 0.00 0.00 1008.3
20260504205052 0 24 4.0 6.0 0.00 0.00 0.00 1008.2
20260504204550 0 96 1.0 2.0 0.00 0.00 0.00 1008.1
20260504204049 0 334 3.0 6.0 0.00 0.00 0.00 1008.2
20260504203547 0 328 3.0 5.0 0.00 0.00 0.00 1008.3
20260504203044 0 95 1.0 3.0 0.00 0.00 0.00 1008.4
20260504202539 0 351 2.0 3.0 0.00 0.00 0.00 1008.5
20260504202037 0 89 1.0 3.0 0.00 0.00 0.00 1008.3
20260504201533 0 89 1.0 3.0 0.00 0.00 0.00 1008.3
20260504201032 0 95 0.0 5.0 0.00 0.00 0.00 1008.4
20260504200527 0 91 2.0 6.0 0.00 0.00 0.00 1008.5
20260504200024 0 71 3.0 5.0 0.00 0.00 0.00 1008.5
20260504195520 0 353 5.0 7.0 0.00 0.00 0.00 1008.8
20260504195017 0 76 3.0 3.0 0.00 0.00 0.00 1008.7
20260504194514 0 100 2.0 2.0 0.00 0.00 0.00 1008.6
20260504194009 0 335 3.0 5.0 0.00 0.00 0.00 1008.6
20260504193506 0 86 3.0 8.0 0.00 0.00 0.00 1008.6
20260504193005 0 72 3.0 6.0 0.00 0.00 0.00 1008.6
20260504192502 0 77 1.0 3.0 0.00 0.00 0.00 1008.5
20260504192001 0 15 4.0 7.0 0.00 0.00 0.00 1008.6
20260504191458 0 284 4.0 6.0 0.00 0.00 0.00 1008.5
20260504190954 0 106 3.0 6.0 0.00 0.00 0.00 1008.7
20260504190449 0 25 4.0 7.0 0.00 0.00 0.00 1008.9
20260504185946 0 294 3.0 5.0 0.00 0.00 0.00 1008.5
20260504185443 0 339 4.0 7.0 0.00 0.00 0.00 1008.8
20260504184939 0 51 2.0 7.0 0.00 0.00 0.00 1008.7
20260504184435 0 292 4.0 6.0 0.00 0.00 0.00 1009.0
20260504183931 0 212 2.0 6.0 0.00 0.00 0.00 1008.9
20260504183429 0 39 2.0 6.0 0.00 0.00 0.00 1008.8
20260504182927 0 324 4.0 6.0 0.00 0.00 0.00 1008.9
20260504182423 0 318 5.0 7.0 0.00 0.00 0.00 1008.9
20260504181920 0 316 5.0 7.0 0.00 0.00 0.00 1008.4
20260504181418 0 42 3.0 7.0 0.00 0.00 0.00 1008.8
20260504180916 0 55 3.0 6.0 0.00 0.00 0.00 1008.8
20260504180415 0 75 1.0 5.0 0.00 0.00 0.00 1008.8
20260504175912 0 7 3.0 6.0 0.00 0.00 0.00 1008.5
20260504175409 0 133 4.0 5.0 0.00 0.00 0.00 1008.5
20260504174907 0 9 4.0 5.0 0.00 0.00 0.00 1008.8
20260504174404 0 74 2.0 3.0 0.00 0.00 0.00 1008.4
20260504173901 0 59 1.0 2.0 0.00 0.00 0.00 1008.6
20260504173357 0 84 2.0 5.0 0.00 0.00 0.00 1008.5
20260504172855 0 66 3.0 6.0 0.00 0.00 0.00 1008.6
20260504172351 0 32 3.0 3.0 0.00 0.00 0.00 1008.5
20260504171847 0 45 2.0 5.0 0.00 0.00 0.00 1008.2
20260504171345 0 26 3.0 5.0 0.00 0.00 0.00 1008.5
20260504170842 0 229 3.0 3.0 0.00 0.00 0.00 1008.4
20260504170338 0 0.0 0.0 0.00 0.00 0.00 1008.6
20260504160257 0 0.0 0.0 0.00 0.00 0.00 1008.6
20260504150722 0 0.0 0.0 0.00 0.00 0.00 1008.4
20260504150219 0 0.0 0.0 0.00 0.00 0.00 1008.4
20260504141148 0 0.0 0.0 0.00 0.00 0.00 1008.3
20260504140645 0 0.0 0.0 0.00 0.00 0.00 1008.1
20260504140140 0 0.0 0.0 0.00 0.00 0.00 1008.2
20260504130609 0 0.0 0.0 0.00 0.00 0.00 1007.7
20260504130106 0 0.0 0.0 0.00 0.00 0.00 1007.7
20260504110456 0 0.0 0.0 0.00 0.00 0.00 1007.7
20260504100419 0 0.0 0.0 0.00 0.00 0.00 1007.6
20260504081812 0 0.0 0.0 0.00 0.00 0.00 1007.7
20260504081309 0 0.0 0.0 0.00 0.00 0.00 1007.9
20260504080805 0 0.0 0.0 0.00 0.00 0.00 1007.8
20260504080301 0 0.0 0.0 0.00 0.00 0.00 1007.7
20260504070229 0 0.0 0.0 0.00 0.00 0.00 1007.6
20260504060150 0 0.0 0.0 0.00 0.00 0.00 1007.9
20260504050618 0 0.0 0.0 0.00 0.00 0.00 1007.9
20260504050115 0 0.0 0.0 0.00 0.00 0.00 1008.0
20260504045612 0 0.0 0.0 0.00 0.00 0.00 1007.8
20260504045107 0 0.0 0.0 0.00 0.00 0.00 1008.1
20260504044605 0 0.0 0.0 0.00 0.00 0.00 1008.0
20260504044101 0 0.0 0.0 0.00 0.00 0.00 1007.8
20260504043559 0 0.0 0.0 0.00 0.00 0.00 1007.8
20260504043055 0 0.0 0.0 0.00 0.00 0.00 1007.7
20260504042552 0 0.0 0.0 0.00 0.00 0.00 1007.8
20260504042049 0 0.0 0.0 0.00 0.00 0.00 1007.7
20260504041545 0 0.0 0.0 0.00 0.00 0.00 1007.6
20260504041041 0 0.0 0.0 0.00 0.00 0.00 1008.0
20260504040539 0 0.0 0.0 0.00 0.00 0.00 1007.8
20260504040036 0 202 0.0 0.0 0.00 0.00 0.00 1007.7
20260504035532 0 202 0.0 0.0 0.00 0.00 0.00 1007.5
20260504035029 0 202 0.0 0.0 0.00 0.00 0.00 1007.7
20260504034527 0 202 0.0 0.0 0.00 0.00 0.00 1007.4
20260504034023 0 202 0.0 0.0 0.00 0.00 0.00 1007.5
20260504033521 0 202 0.0 0.0 0.00 0.00 0.00 1007.5
20260504033018 0 202 0.0 0.0 0.00 0.00 0.00 1007.7
20260504032515 0 202 0.0 0.0 0.00 0.00 0.00 1007.5
20260504032012 0 202 0.0 0.0 0.00 0.00 0.00 1007.5
20260504031509 0 202 0.0 0.0 0.00 0.00 0.00 1007.6
20260504031005 0 202 0.0 0.0 0.00 0.00 0.00 1007.6
20260504030503 0 202 0.0 1.0 0.00 0.00 0.00 1007.6
20260504025958 0 184 1.0 2.0 0.00 0.00 0.00 1007.7
20260504025456 0 106 2.0 5.0 0.00 0.00 0.00 1007.9
20260504024952 0 100 1.0 2.0 0.00 0.00 0.00 1007.9
20260504024449 0 105 0.0 2.0 0.00 0.00 0.00 1007.8
20260504023946 0 100 0.0 2.0 0.00 0.00 0.00 1007.9
20260504023443 0 80 1.0 6.0 0.00 0.00 0.00 1008.0
20260504022938 0 98 3.0 5.0 0.00 0.00 0.00 1007.9
20260504022435 0 117 2.0 5.0 0.00 0.00 0.00 1007.7
20260504021932 0 94 1.0 2.0 0.00 0.00 0.00 1007.7
20260504021429 0 82 2.0 6.0 0.00 0.00 0.00 1007.8
20260504020926 0 107 0.0 1.0 0.00 0.00 0.00 1007.9
20260504020423 0 96 1.0 3.0 0.00 0.00 0.00 1007.9
20260504015920 0 64 3.0 5.0 0.00 0.00 0.00 1008.0
20260504015415 0 95 1.0 6.0 0.00 0.00 0.00 1008.2
20260504014912 0 73 2.0 3.0 0.00 0.00 0.00 1007.9
20260504014408 0 92 1.0 2.0 0.00 0.00 0.00 1008.1
20260504013905 0 89 4.0 5.0 0.00 0.00 0.00 1008.1
20260504013403 0 85 3.0 6.0 0.00 0.00 0.00 1008.2
20260504012859 0 85 1.0 5.0 0.00 0.00 0.00 1008.3
20260504012357 0 74 3.0 5.0 0.00 0.00 0.00 1008.2
20260504011854 0 99 2.0 3.0 0.00 0.00 0.00 1008.3
20260504011351 0 94 3.0 6.0 0.00 0.00 0.00 1008.3
20260504010847 0 94 3.0 5.0 0.00 0.00 0.00 1008.2
20260504010342 0 50 3.0 5.0 0.00 0.00 0.00 1008.2
20260504005839 0 118 3.0 7.0 0.00 0.00 0.00 1008.3
20260504005336 0 94 0.0 5.0 0.00 0.00 0.00 1008.5
20260504004834 0 130 3.0 6.0 0.00 0.00 0.00 1008.5
20260504004331 0 111 2.0 5.0 0.00 0.00 0.00 1008.6
20260504003827 0 75 5.0 8.0 0.00 0.00 0.00 1008.5
20260504003324 0 99 5.0 8.0 0.00 0.00 0.00 1008.6
20260504002821 0 109 6.0 8.0 0.00 0.00 0.00 1008.5
20260504002318 0 94 3.0 6.0 0.00 0.00 0.00 1008.4
20260504001816 0 90 3.0 6.0 0.00 0.00 0.00 1008.6
20260504001313 0 93 2.0 6.0 0.00 0.00 0.00 1008.4
20260504000809 0 95 1.0 3.0 0.00 0.00 0.00 1008.7
20260504000307 0 118 3.0 8.0 0.00 0.00 0.00 1008.5
20260503235804 0 134 4.0 6.0 0.00 0.00 0.00 1008.5
20260503235301 0 108 3.0 5.0 0.00 0.00 0.00 1008.5
20260503234759 0 85 1.0 5.0 0.00 0.00 0.00 1008.6
20260503234257 0 106 3.0 7.0 0.00 0.00 0.00 1008.7
20260503233754 0 85 4.0 5.0 0.00 0.00 0.00 1008.8
20260503233249 0 120 1.0 5.0 0.00 0.00 0.00 1008.8
20260503232747 0 84 1.0 3.0 0.00 0.00 0.00 1008.9
20260503232244 0 125 1.0 5.0 0.00 0.00 0.00 1008.8